TITAN 3C TRANSTAGE R/B, 3292

Orbit data source: Space-Track

TITAN 3C TRANSTAGE R/B, 3292 is space debris in GEO originally from a launch on Thu, 13 Jun 1968 UTC launched from the Air Force Eastern Test Range (AFETR). Debris objects in space refer to the collection of defunct objects orbiting the Earth. Examples of debris include non-operational satellites, rocket bodies, and fragments generated from explosions, collisions, or faulty payload assembly.

Loading next visibility...
Identifier
3292, 1968-050J
Orbit
GEO
Country
Flag of USUS
Related business
Manufacturer
Martin Marietta
Mission
Spacecraft
Bus & Motor
TRANSTAGE, Unknown motor
Mass
~1,950 kg wet, ~1,950 kg dry
Launch date (UTC)
1968-06-13 (58 years ago)
Launch vehicle
Unknown
Launch site
Air Force Eastern Test Range (AFETR)
Object type
Payload
Rocket body
Debris
Shape & HBR
Unknown
Radar Cross Section
Large (>1 m²)

Expand to show TLE details & history
Last TLE update: 12 hours ago

TLE from 12 hours ago
0 TITAN 3C TRANSTAGE R/B
1 03292U 68050J   26175.08403436 -.00000197  00000-0  00000-0 0  9992
2 03292   7.6430  52.7410 0175726   7.3567 165.1701  1.05594684 46578
Epoch: 2026-06-24T02:01Z
TLE epoch observation values (Epoch: 2026-06-24T02:01:00.568Z)
Latitude
0.91266°
Longitude
-76.64458°
Altitude
35,050.695 km
Speed
3.075 km/s
True Right ascension
15h 03m 24s
True Declination
0° 54' 42"
Sunlit
Object was in daylight at epoch
Visualization orbit readout
Latitude
Unknown
Longitude
Unknown
Altitude
Unknown
Speed
Unknown
Apparent Right ascension
Unknown
Apparent Declination
Unknown
Sunlit
N/A
Visualization observer readout
Local Sidereal Time
00:48:26
Azimuth
Unknown
Elevation
Unknown
Doppler factor
Unknown
Orbital elements
Apogee altitude
35,074.36 km
Perigee altitude
33,642.663 km
Semi-major axis
40,736.649 km
Eccentricity
0.01757
Inclination
7.643°
RAAN
52.741°
Arg. of periapsis
7.3567°
True anomaly
165.67477°
Mean anomaly
165.1701°
Eccentric anomaly
165.42349°
Mean motion
0.26398 °/min
Orbital period
1,363.76 mins
BSTAR
0
Loading maneuver chart data...
Computing Atmospheric mass density...
Loading historical data...
Loading historical data...
Loading historical data...
Loading historical data...
Loading historical data...
Loading historical data...
Loading historical data...

Documentation

Showing up to 5 results
|